Weather History for Fort Indiantown Gap, PA

Change the Weather History Date:

Friday, September 7, 2012

  Actual Average Record
Temperature  
Mean Temperature 76 °F -  
Max Temperature 89 °F 76 °F 91 °F (2010)
Min Temperature 65 °F 60 °F 45 °F (2013)
Cooling Degree Days 12    
Growing Degree Days 26 (Base 50)    
Moisture  
Dew Point 68 °F    
Average Humidity 79    
Maximum Humidity 100    
Minimum Humidity 42    
Precipitation  
Precipitation 0.00 in - - ()
Sea Level Pressure  
Sea Level Pressure 29.90 in    
Wind  
Wind Speed 2 mph (SW)    
Max Wind Speed 9 mph    
Max Gust Speed -    
Visibility 9 miles    
Events Thunderstorm    
Averages and records for this station are not official NWS values.
T = Trace of Precipitation, MM = Missing Value Source: NWS Daily Summary

Daily Weather History Graph

Daily Weather History Graph

Search for Another Location

Airport:

Trip Planner

Search our weather history database for the weather conditions in past years. The results will help you decide how hot, cold, wet, or windy it might be!

Date:

Astronomy

Sep. 07, 2012 Rise Set
Actual Time 6:39 AM EDT 7:27 PM EDT
Civil Twilight 6:12 AM EDT 7:55 PM EDT
Nautical Twilight 5:39 AM EDT 8:27 PM EDT
Astronomical Twilight 5:05 AM EDT 9:01 PM EDT
Moon 11:20 PM EDT (9/7) 1:31 PM EDT (9/7)
Length of Visible Light 13h 43m
Length of Day
12h 47m
Waning Gibbous, 58% of the Moon is Illuminated
Sep 7
Waning Gibbous
Sep 8
Last Quarter
Sep 15
New
Sep 22
First Quarter
Sep 29
Full

Hourly Weather History & Observations

Time (EDT) Temp. Heat Index Dew Point Humidity Pressure Visibility Wind Dir Wind Speed Gust Speed Precip Events Conditions
12:55 AM 73.6 °F - 71.6 °F 93% 29.92 in 10.0 mi Calm Calm - N/A   Overcast
1:09 AM 73.4 °F - 71.6 °F 94% 29.92 in 9.0 mi SW 4.6 mph - N/A   Scattered Clouds
1:55 AM 72.3 °F - 70.7 °F 95% 29.92 in 8.0 mi WSW 3.5 mph - N/A   Clear
2:33 AM 69.8 °F - 69.8 °F 100% 29.93 in 4.0 mi NE 3.5 mph - N/A   Mostly Cloudy
2:54 AM 71.6 °F - 71.6 °F 100% 29.92 in 8.0 mi Calm Calm - N/A Thunderstorm Thunderstorm
2:55 AM 71.4 °F - 70.7 °F 98% 29.93 in 8.0 mi Calm Calm - N/A Thunderstorm Thunderstorm
3:22 AM 71.6 °F - 69.8 °F 94% 29.91 in 10.0 mi East 3.5 mph - N/A Thunderstorm Overcast
3:55 AM 72.0 °F - 66.7 °F 84% 29.92 in 10.0 mi Calm Calm - N/A Thunderstorm Overcast
3:59 AM 71.6 °F - 66.2 °F 83% 29.92 in 10.0 mi Calm Calm - N/A   Overcast
4:10 AM 71.6 °F - 66.2 °F 83% 29.92 in 10.0 mi Calm Calm - N/A   Overcast
4:27 AM 69.8 °F - 68.0 °F 94% 29.92 in 10.0 mi Calm Calm - N/A   Scattered Clouds
4:55 AM 68.2 °F - 67.3 °F 97% 29.92 in 10.0 mi Calm Calm - N/A   Clear
5:55 AM 66.2 °F - 65.8 °F 99% 29.91 in 9.0 mi Calm Calm - N/A   Clear
6:55 AM 65.1 °F - 64.9 °F 99% 29.92 in 6.0 mi Calm Calm - N/A   Clear
7:55 AM 67.8 °F - 66.7 °F 96% 29.93 in 8.0 mi Calm Calm - N/A   Clear
8:55 AM 74.5 °F - 69.6 °F 85% 29.93 in 10.0 mi South 5.8 mph - N/A   Clear
9:55 AM 77.7 °F - 70.9 °F 79% 29.94 in 10.0 mi Variable 4.6 mph - N/A   Clear
10:55 AM 81.5 °F 85.7 °F 71.4 °F 71% 29.94 in 10.0 mi SSW 4.6 mph - N/A   Clear
11:55 AM 85.5 °F 87.1 °F 65.1 °F 50% 29.93 in 10.0 mi NW 4.6 mph - N/A   Clear
12:55 PM 86.7 °F 87.8 °F 63.5 °F 46% 29.91 in 10.0 mi Variable 3.5 mph - N/A   Clear
1:55 PM 87.8 °F 88.8 °F 63.5 °F 44% 29.91 in 10.0 mi Variable 5.8 mph - N/A   Clear
2:55 PM 88.0 °F 89.6 °F 64.9 °F 46% 29.89 in 10.0 mi SW 4.6 mph - N/A   Clear
3:55 PM 88.0 °F 88.4 °F 62.2 °F 42% 29.88 in 10.0 mi WSW 9.2 mph - N/A   Clear
4:55 PM 87.4 °F 88.0 °F 62.2 °F 43% 29.87 in 10.0 mi SW 5.8 mph - N/A   Clear
5:55 PM 85.6 °F 88.8 °F 67.8 °F 55% 29.87 in 10.0 mi SW 4.6 mph - N/A   Partly Cloudy
6:55 PM 80.8 °F 84.7 °F 71.6 °F 73% 29.86 in 10.0 mi Calm Calm - N/A   Clear
7:55 PM 77.9 °F - 69.1 °F 74% 29.88 in 10.0 mi SW 3.5 mph - N/A   Clear
8:55 PM 76.6 °F - 70.2 °F 80% 29.88 in 10.0 mi Calm Calm - N/A   Scattered Clouds
9:55 PM 73.6 °F - 70.3 °F 90% 29.86 in 10.0 mi Calm Calm - N/A   Mostly Cloudy
10:55 PM 74.7 °F - 69.4 °F 84% 29.83 in 10.0 mi Variable 3.5 mph - N/A   Mostly Cloudy
11:55 PM 72.3 °F - 68.9 °F 89% 29.84 in 10.0 mi Calm Calm - N/A   Clear